Greensboro, NC

12:40 AM EST on February 25, 2017 (GMT -0500)
Piedmont Triad International

Weather History for KGSO - November, 2011

Change the Weather History Date:

Monday, November 21, 2011

  Actual Average Record
Temperature  
Mean Temperature 65 °F 48 °F  
Max Temperature 74 °F 59 °F 79 °F (1942)
Min Temperature 56 °F 38 °F 12 °F (1914)
Degree Days  
Heating Degree Days 0 17  
Month to date heating degree days 288 282  
Since 1 July heating degree days 528 515  
Cooling Degree Days 0 0  
Month to date cooling degree days 4 0  
Year to date cooling degree days 1798 1480  
Growing Degree Days 14 (Base 50)    
Moisture  
Dew Point 56 °F    
Average Humidity 73    
Maximum Humidity 93    
Minimum Humidity 53    
Precipitation  
Precipitation T in 0.10 in 2.07 in (1985)
Month to date precipitation 4.88 2.18  
Year to date precipitation 38.63 38.29  
Snow  
Snow 0.00 in 0.00 in 2.50 in (1914)
Month to date snowfall 0.0 0.0  
Since 1 July snowfall 0.0 0.0  
Since 1 September snowfall 0.0 0.0  
Snow Depth 0.00 in    
Sea Level Pressure  
Sea Level Pressure 30.19 in    
Wind  
Wind Speed 5 mph (WSW)    
Max Wind Speed 15 mph    
Max Gust Speed 26 mph    
Visibility 8 miles    
Events      
T = Trace of Precipitation, MM = Missing Value Source: NWS Daily Summary

Daily Weather History Graph

Daily Weather History Graph

Search for Another Location

Airport or City:

Trip Planner

Search our weather history database for the weather conditions in past years. The results will help you decide how hot, cold, wet, or windy it might be!

Date:

Astronomy

Nov. 21, 2011 Rise Set
Actual Time 7:02 AM EST 5:08 PM EST
Civil Twilight 6:34 AM EST 5:36 PM EST
Nautical Twilight 6:03 AM EST 6:07 PM EST
Astronomical Twilight 5:32 AM EST 6:38 PM EST
Moon 2:45 AM EST (11/21) 2:24 PM EST (11/21)
Length of Visible Light 11h 01m
Length of Day
10h 06m
Waning Crescent, 18% of the Moon is Illuminated
Nov 21
Waning Crescent
Nov 25
New
Dec 2
First Quarter
Dec 10
Full
Dec 17
Last Quarter

Hourly Weather History & Observations

Time (EST) Temp. Dew Point Humidity Pressure Visibility Wind Dir Wind Speed Gust Speed Precip Events Conditions
12:54 AM 61.0 °F 55.9 °F 83% 30.19 in 10.0 mi WSW 10.4 mph - N/A   Overcast
1:54 AM 61.0 °F 55.9 °F 83% 30.17 in 10.0 mi WSW 10.4 mph - N/A   Overcast
2:54 AM 61.0 °F 55.9 °F 83% 30.18 in 9.0 mi West 12.7 mph 20.7 mph N/A   Overcast
3:54 AM 60.1 °F 55.9 °F 86% 30.17 in 8.0 mi WSW 10.4 mph - N/A   Mostly Cloudy
4:54 AM 60.1 °F 55.9 °F 86% 30.18 in 8.0 mi West 6.9 mph - N/A   Mostly Cloudy
5:31 AM 59.0 °F 55.4 °F 88% 30.20 in 7.0 mi WSW 5.8 mph - N/A   Mostly Cloudy
5:54 AM 59.0 °F 55.9 °F 90% 30.19 in 7.0 mi SW 5.8 mph - N/A   Overcast
6:54 AM 57.0 °F 55.0 °F 93% 30.21 in 5.0 mi WSW 3.5 mph - N/A   Scattered Clouds
7:40 AM 55.4 °F 55.4 °F 100% 30.24 in 2.5 mi WSW 4.6 mph - N/A   Partly Cloudy
7:54 AM 57.0 °F 55.0 °F 93% 30.23 in 2.5 mi Calm Calm - N/A   Partly Cloudy
8:13 AM 59.0 °F 55.4 °F 88% 30.24 in 3.0 mi SW 5.8 mph - N/A   Partly Cloudy
8:33 AM 59.0 °F 55.4 °F 88% 30.25 in 3.0 mi SW 3.5 mph - N/A   Mostly Cloudy
8:54 AM 60.1 °F 57.0 °F 90% 30.24 in 4.0 mi SW 4.6 mph - N/A   Mostly Cloudy
9:30 AM 62.6 °F 57.2 °F 82% 30.25 in 6.0 mi WSW 4.6 mph - N/A   Haze
9:54 AM 63.0 °F 57.0 °F 81% 30.25 in 7.0 mi SW 6.9 mph - N/A   Partly Cloudy
10:54 AM 66.9 °F 57.0 °F 70% 30.22 in 10.0 mi Variable 4.6 mph - N/A   Clear
11:54 AM 68.0 °F 57.0 °F 68% 30.19 in 10.0 mi SSW 5.8 mph - N/A   Clear
12:54 PM 71.1 °F 57.0 °F 61% 30.18 in 10.0 mi West 4.6 mph - N/A   Clear
1:54 PM 73.0 °F 55.0 °F 53% 30.15 in 10.0 mi Variable 3.5 mph - N/A   Scattered Clouds
2:54 PM 72.0 °F 54.0 °F 53% 30.15 in 10.0 mi WNW 6.9 mph 17.3 mph N/A   Scattered Clouds
3:54 PM 71.1 °F 54.0 °F 55% 30.16 in 10.0 mi SW 4.6 mph - N/A   Partly Cloudy
4:54 PM 69.1 °F 54.0 °F 58% 30.17 in 10.0 mi SW 3.5 mph - N/A   Scattered Clouds
5:54 PM 64.9 °F 55.0 °F 70% 30.18 in 10.0 mi SSW 3.5 mph - N/A   Scattered Clouds
6:54 PM 66.9 °F 55.0 °F 66% 30.20 in 10.0 mi WNW 9.2 mph - N/A   Mostly Cloudy
7:54 PM 63.0 °F 57.0 °F 81% 30.19 in 10.0 mi Calm Calm - 0.00 in   Mostly Cloudy
8:54 PM 62.1 °F 57.0 °F 84% 30.17 in 10.0 mi SW 3.5 mph - N/A   Overcast
9:54 PM 61.0 °F 55.9 °F 83% 30.15 in 10.0 mi South 3.5 mph - N/A   Mostly Cloudy
10:54 PM 60.1 °F 55.9 °F 86% 30.15 in 10.0 mi WSW 4.6 mph - N/A   Mostly Cloudy
11:54 PM 61.0 °F 55.9 °F 83% 30.16 in 10.0 mi Calm Calm - N/A   Mostly Cloudy